User: anonymous   Login
Location: NJAA Observatory
(40.6819°N, 74.8979°W)
Time: 14:33:59
(UTC-04:00)
Language:

ATLAS CENTAUR R/B - Orbit

View from above orbital plane
View from above orbital plane
View from above satellite
View from above satellite

Ground track
Ground track

The orbit data is extracted from the following two-line orbital elements,

1 28385U 04034B   14301.46934621 0.00041000  00000-0  16792-2 0    06
2 28385  57.4011 359.4686 4053202   2.6541 359.0889  7.37664304    03
Epoch (UTC): 28 October 2014 11:15:51
Eccentricity: 0.4053202
inclination: 57.4011°
perigee height: 251 km
apogee height: 9287 km
right ascension of ascending node: 359.4686°
argument of perigee: 2.6541°
revolutions per day: 7.37664304
mean anomaly at epoch: 359.0889°
orbit number at epoch: 0

The dashed part of the orbit path shows where the satellite is in the earth's shadow,  

DLR